Location: Newark
(48.4472°N, 1.4892°E)
Time: 18:19:26
(UTC+00:00)

Vanguard 2 Rocket - Pass Details

Date: 20 November 2019
Orbit: 554 x 3326 km, 32.9° (Epoch: 14 December)

Event Time Altitude Azimuth Distance (km) Brightness Sun altitude
Exits shadow 03:58:31 18° 180° (S) 2,366 8.9 -31.2°
Drops below altitude 10° 04:03:30 10° 143° (SE) 3,475 10.2 -30.4°
Sets 04:08:34 0° 128° (SE) 5,042 11.4 -29.5°
